Wind_Speed
13 14 15 16 18 21 23 25 28 30 32 34 37 40 43 45 48 49 50 52 54 55 55 55 55 56 56 57 58 57 57 56 54 53 51 49 47 44 43 41 40 38 37 38
15 15 16 18 20 23 25 27 29 31 33 36 39 42 45 47 49 50 51 53 54 54 53 53 54 55 56 57 57 57 57 56 55 54 52 51 49 47 45 44 42 41 39 37
16 16 17 20 22 24 26 28 31 34 36 39 40 44 47 49 50 51 53 53 53 52 52 53 54 56 56 56 56 56 56 55 54 53 52 50 49 47 46 44 44 42 41 40
17 18 19 22 24 26 27 29 32 35 38 41 43 45 48 51 52 53 53 52 52 51 52 53 55 56 57 57 56 56 55 53 51 50 48 47 47 46 45 44 43 43 42 41
18 20 21 24 26 28 30 31 34 37 40 43 45 45 46 49 51 52 52 52 52 52 53 54 56 57 57 56 55 55 53 51 49 48 46 44 44 43 42 42 41 41 42 40
21 23 25 26 27 30 32 33 36 39 42 45 48 49 49 51 52 53 52 52 53 53 53 55 56 57 56 55 54 53 52 49 47 45 43 41 39 38 38 39 38 38 40 40
22 23 24 26 28 31 33 36 38 41 43 46 49 51 53 54 54 54 53 53 53 52 53 55 56 56 55 54 53 53 50 47 44 41 39 37 35 33 32 34 35 35 37 37
23 23 25 27 29 31 33 35 38 41 44 47 49 51 53 54 54 53 52 52 52 52 53 55 56 56 54 53 52 51 48 45 41 38 35 32 30 28 27 28 30 32 33 34
23 25 26 28 30 31 33 36 38 41 44 47 50 52 53 54 54 53 51 51 51 51 53 54 56 56 53 52 51 49 45 41 38 33 30 27 24 22 22 23 24 27 29 31
23 25 26 28 29 32 34 37 39 42 45 48 50 52 53 54 54 52 51 50 50 50 52 53 55 55 53 51 49 46 43 38 35 30 26 23 19 16 16 17 19 21 25 28
24 25 27 28 31 33 35 37 40 43 45 48 50 52 53 54 54 52 50 49 49 50 51 53 54 54 52 50 47 44 41 37 32 28 25 21 16 12 9 9 12 16 20 24
25 27 28 30 32 34 35 37 40 42 45 47 50 52 53 54 53 52 50 48 48 48 50 52 53 53 52 50 46 43 40 35 31 27 24 20 16 11 6 2 6 11 15 19
26 27 29 31 32 34 35 37 40 42 45 47 49 52 53 53 53 52 49 47 46 47 49 50 52 52 51 49 45 42 38 33 29 26 24 21 16 12 8 4 4 8 12 16
27 28 29 30 32 33 35 37 40 42 45 47 49 51 52 53 53 51 49 46 45 45 47 48 49 50 50 49 45 42 37 32 29 26 24 21 17 13 10 8 7 9 12 14
27 28 29 30 32 33 35 37 40 42 45 47 48 49 51 52 52 51 48 45 43 44 45 46 47 47 48 47 45 41 37 33 30 27 25 22 19 16 13 10 10 11 12 13
27 28 30 31 33 35 36 38 40 43 45 46 47 48 50 51 51 50 48 44 41 41 43 44 45 45 45 45 43 41 38 34 30 27 26 24 21 19 16 14 13 12 13 13
29 30 31 33 34 36 38 39 41 43 45 46 47 47 48 49 49 48 47 43 40 39 41 42 42 42 43 42 41 40 38 34 31 28 26 24 23 21 19 16 15 14 13 13
31 32 33 34 36 38 39 40 42 44 45 46 46 47 47 48 47 46 45 42 38 37 38 39 39 40 40 39 39 38 37 34 31 28 26 24 23 22 21 20 18 17 15 15
33 34 35 36 37 38 40 41 43 44 45 45 45 45 46 46 46 45 44 41 36 34 34 35 36 36 36 36 36 35 35 33 31 28 26 24 22 22 21 20 19 18 18 18
35 36 37 37 38 39 40 41 43 43 43 44 44 44 43 44 44 43 42 41 36 32 31 31 32 33 33 33 33 33 33 32 30 28 27 24 22 21 21 21 21 21 21 21
37 38 38 38 38 38 39 40 41 41 42 43 43 42 42 42 42 41 39 38 35 31 29 28 28 28 28 29 29 30 30 30 29 28 26 26 24 23 22 23 23 23 24 24
39 39 39 38 37 37 38 39 39 40 41 42 42 41 40 40 40 40 37 36 34 30 26 25 24 24 24 25 26 26 26 27 27 27 26 25 24 24 23 23 23 23 24 24
40 39 38 37 37 37 38 38 40 41 42 42 41 41 39 39 38 37 35 34 32 29 24 21 21 21 21 21 21 22 22 23 23 24 24 24 24 24 24 24 24 24 24 24
40 38 37 37 37 38 38 39 41 43 43 42 41 40 38 37 37 36 33 31 30 28 23 19 17 17 17 17 17 17 18 19 19 20 20 21 22 22 23 23 24 24 24 24
41 39 38 37 38 38 39 41 43 43 42 41 40 39 37 36 35 34 32 29 28 27 23 18 15 14 13 13 13 13 13 14 15 16 16 17 18 18 19 20 21 21 21 22
43 41 40 40 42 42 42 43 43 41 40 39 38 37 36 35 34 32 30 28 26 25 22 18 14 12 11 10 10 10 10 10 11 11 12 13 14 15 15 16 17 17 18 18
43 42 41 41 43 44 43 43 41 40 39 37 36 35 34 33 32 31 29 27 24 23 21 17 14 12 10 8 7 6 6 6 6 7 8 9 10 11 12 13 13 14 14 14
Wind_Direction
333 332 330 331 332 334 336 335 333 333 333 334 333 332 330 329 329 328 327 325 324 323 322 320 318 317 315 313 310 307 304 301 298 295 291 287 282 278 274 271 268 265 262 259
330 331 332 332 334 336 337 336 335 336 337 337 336 334 332 331 331 330 328 327 327 326 324 323 321 319 317 315 311 308 304 301 297 294 291 287 283 278 273 268 264 261 260 257
325 328 330 330 333 335 337 337 338 339 339 338 338 336 334 333 332 331 330 329 329 328 327 325 323 321 319 317 313 310 307 303 299 295 290 286 282 279 274 267 262 258 256 254
323 328 332 332 333 335 338 339 339 339 338 339 339 339 335 334 333 333 332 331 331 330 328 327 325 324 322 319 317 314 311 306 301 297 292 286 283 278 273 267 261 256 253 250
326 331 333 333 334 335 337 339 338 338 339 339 339 340 337 335 334 334 334 333 333 332 330 329 328 326 324 322 319 317 314 310 304 299 294 289 284 278 272 266 260 254 249 247
329 332 333 333 333 334 336 338 338 339 340 340 340 340 340 338 338 338 337 335 334 333 332 331 330 329 327 325 323 320 318 314 308 303 297 292 286 280 272 264 258 252 247 243
328 329 330 330 332 333 335 337 338 339 340 341 342 341 341 341 341 339 338 336 335 335 334 333 333 332 330 328 327 325 323 319 314 308 301 295 287 280 273 263 255 250 245 240
326 328 329 330 331 333 334 335 337 339 340 342 343 343 343 342 342 340 339 338 337 337 336 336 336 335 334 332 331 330 328 326 322 315 308 300 291 281 273 263 253 246 241 237
326 327 328 329 329 331 332 335 337 339 341 343 344 344 344 344 343 342 340 339 339 339 339 339 339 340 338 338 337 336 335 333 330 326 319 311 299 286 274 262 252 241 234 231
323 324 325 327 329 330 333 335 337 339 341 344 345 346 345 345 344 343 341 341 341 342 343 343 343 344 344 344 343 343 342 341 341 339 334 326 313 297 278 261 248 235 227 223
322 324 326 328 329 331 333 335 337 339 342 344 346 346 346 345 345 344 343 343 343 344 345 347 348 349 349 349 349 349 350 350 350 351 351 347 339 325 295 261 240 224 217 213
322 324 327 328 330 331 332 334 336 339 341 344 345 347 347 347 346 346 345 345 345 347 348 350 351 352 353 353 353 353 354 356 359 1 1 3 2 359 350 279 213 204 202 200
321 324 326 327 328 329 330 333 336 338 341 344 345 347 348 348 348 348 347 346 347 349 351 352 354 356 357 358 358 358 360 2 6 9 11 13 16 21 32 65 143 170 180 183
320 322 324 325 326 327 329 332 335 338 340 343 345 347 348 349 349 349 348 348 349 351 353 355 357 360 2 3 4 4 7 9 11 14 16 19 25 34 48 73 106 138 157 167
317 319 321 322 324 326 329 332 335 337 339 341 344 346 348 349 349 349 350 350 351 353 355 357 360 3 5 7 9 11 14 16 19 22 25 30 36 44 55 72 98 123 140 152
314 316 318 320 322 324 327 330 333 335 337 339 342 345 348 349 350 350 350 350 351 353 356 358 2 5 8 11 13 16 19 23 26 30 35 40 45 51 62 77 93 109 124 136
312 314 316 317 320 322 325 328 329 331 334 337 341 344 347 349 350 350 350 350 351 353 356 359 2 6 9 13 16 20 24 28 32 36 41 46 51 56 64 74 86 99 110 120
309 311 313 315 317 319 322 324 326 328 331 335 338 342 346 348 349 350 351 351 351 353 356 359 3 7 10 15 19 21 25 29 34 38 43 49 54 59 64 70 80 93 105 112
305 308 310 312 314 315 317 320 323 326 329 332 336 340 344 347 348 349 350 351 351 352 355 359 3 7 12 16 21 24 27 30 34 39 43 48 54 59 65 71 79 87 95 102
302 305 307 309 310 311 314 318 321 324 327 331 334 338 342 345 347 347 348 350 350 351 354 358 2 7 12 17 23 27 30 34 37 40 46 51 56 62 68 75 83 90 95 101
299 301 304 305 306 309 313 318 321 323 327 330 333 336 339 342 345 346 347 348 349 348 351 356 359 5 11 17 23 29 33 37 41 46 51 56 62 69 75 81 87 92 97 99
297 299 302 303 304 307 312 317 320 323 326 329 331 333 336 339 342 344 344 346 348 347 348 353 357 2 9 15 22 29 34 39 43 49 54 59 64 70 77 84 90 94 99 103
296 299 301 302 303 304 308 313 317 320 323 327 329 331 333 335 339 341 342 343 345 346 344 347 353 359 6 13 20 27 33 39 44 51 56 60 65 72 79 86 92 97 101 104
293 295 298 300 300 301 304 309 315 318 321 324 326 328 330 333 336 338 340 341 342 344 343 342 347 354 1 9 17 24 31 39 46 52 58 62 67 73 80 87 92 96 100 104
290 291 292 293 294 297 302 307 313 316 319 321 324 326 328 330 333 335 337 338 339 341 341 338 338 344 353 1 10 19 28 37 44 51 59 66 71 75 81 88 93 96 100 105
285 287 287 288 290 294 300 305 310 313 316 319 322 324 326 328 330 332 334 335 336 337 337 334 329 330 337 345 356 8 20 34 44 52 60 68 75 81 85 90 95 99 103 108
282 282 284 286 289 292 296 301 305 309 312 316 319 321 323 325 327 329 330 332 332 333 333 331 324 317 316 321 329 344 3 22 42 57 67 73 79 87 93 97 101 105 109 115
Height
5837 5834 5832 5829 5826 5822 5819 5815 5810 5805 5800 5794 5787 5779 5771 5763 5755 5746 5737 5728 5718 5707 5697 5688 5678 5668 5659 5650 5641 5632 5625 5619 5613 5609 5606 5604 5603 5602 5602 5602 5602 5603 5603 5604
5834 5832 5829 5826 5822 5819 5815 5811 5806 5801 5795 5788 5781 5772 5763 5754 5746 5737 5727 5717 5707 5696 5686 5676 5666 5656 5646 5636 5626 5617 5608 5601 5595 5590 5587 5584 5583 5583 5583 5584 5585 5586 5588 5590
5832 5830 5827 5823 5820 5816 5812 5807 5801 5795 5790 5782 5775 5766 5756 5746 5737 5727 5717 5707 5696 5686 5675 5664 5654 5643 5633 5622 5611 5601 5591 5583 5576 5570 5567 5564 5563 5562 5563 5564 5566 5569 5572 5575
5830 5827 5824 5822 5816 5812 5808 5803 5796 5790 5783 5776 5769 5760 5749 5738 5728 5718 5707 5697 5686 5676 5665 5654 5643 5631 5620 5608 5597 5586 5576 5566 5559 5552 5548 5545 5543 5543 5543 5545 5547 5551 5555 5559
5827 5823 5820 5817 5811 5807 5802 5798 5792 5785 5778 5770 5762 5755 5745 5733 5722 5711 5699 5687 5677 5666 5655 5643 5632 5620 5608 5595 5583 5572 5561 5551 5543 5536 5531 5527 5525 5524 5525 5526 5529 5533 5538 5543
5823 5819 5815 5813 5808 5802 5798 5793 5786 5779 5771 5763 5754 5746 5738 5726 5714 5702 5690 5679 5668 5657 5646 5634 5622 5609 5597 5584 5571 5559 5547 5537 5528 5520 5515 5511 5508 5507 5507 5509 5513 5517 5522 5528
5819 5816 5813 5809 5804 5799 5794 5789 5781 5773 5766 5757 5747 5737 5726 5715 5704 5693 5682 5671 5660 5649 5638 5626 5613 5600 5587 5573 5560 5548 5535 5524 5514 5506 5500 5496 5493 5492 5492 5494 5498 5502 5508 5514
5816 5812 5810 5804 5799 5795 5790 5783 5776 5769 5760 5752 5742 5731 5720 5709 5698 5687 5676 5665 5654 5643 5631 5618 5605 5591 5578 5564 5551 5537 5525 5513 5503 5495 5488 5483 5480 5480 5480 5481 5484 5489 5495 5501
5812 5810 5805 5800 5795 5791 5785 5778 5771 5764 5755 5746 5736 5726 5715 5704 5692 5681 5670 5659 5648 5637 5625 5612 5598 5584 5570 5556 5543 5529 5516 5505 5495 5486 5479 5474 5471 5470 5469 5471 5474 5478 5484 5490
5808 5805 5801 5796 5791 5786 5780 5773 5766 5758 5750 5741 5731 5720 5709 5698 5687 5676 5665 5654 5643 5632 5620 5607 5593 5578 5564 5550 5536 5523 5511 5499 5489 5481 5474 5468 5465 5463 5462 5463 5466 5470 5476 5482
5804 5800 5796 5791 5786 5781 5774 5768 5761 5753 5744 5735 5726 5716 5705 5694 5683 5671 5660 5650 5639 5627 5615 5602 5589 5575 5560 5546 5533 5520 5508 5497 5488 5479 5473 5467 5462 5460 5459 5459 5461 5465 5470 5477
5800 5795 5791 5787 5781 5776 5770 5763 5756 5749 5740 5731 5722 5712 5701 5690 5678 5667 5656 5646 5635 5624 5612 5599 5586 5572 5558 5544 5531 5519 5508 5497 5489 5481 5474 5469 5464 5461 5459 5459 5461 5464 5469 5475
5795 5790 5786 5782 5777 5771 5765 5759 5752 5744 5736 5727 5718 5707 5697 5686 5675 5664 5653 5643 5632 5621 5610 5598 5585 5572 5558 5544 5531 5519 5508 5499 5491 5484 5477 5472 5468 5465 5463 5462 5463 5466 5470 5476
5789 5786 5782 5777 5772 5767 5761 5754 5747 5740 5731 5723 5714 5704 5694 5683 5672 5662 5651 5640 5630 5619 5609 5597 5585 5572 5559 5546 5534 5522 5511 5502 5495 5488 5482 5477 5472 5470 5468 5467 5468 5470 5474 5478
5785 5781 5777 5772 5768 5762 5756 5750 5743 5735 5727 5719 5710 5701 5691 5681 5670 5659 5649 5638 5628 5619 5609 5598 5586 5575 5562 5550 5538 5527 5517 5508 5500 5494 5488 5483 5479 5476 5474 5474 5474 5476 5479 5482
5780 5776 5772 5767 5763 5757 5751 5745 5738 5731 5723 5715 5707 5698 5688 5678 5667 5657 5646 5637 5628 5619 5609 5599 5588 5578 5566 5555 5544 5533 5523 5515 5507 5501 5496 5491 5487 5484 5482 5481 5482 5483 5485 5488
5774 5770 5766 5762 5757 5751 5746 5740 5733 5726 5719 5711 5702 5694 5685 5675 5665 5656 5646 5636 5627 5619 5610 5601 5591 5581 5571 5561 5550 5541 5531 5523 5516 5510 5505 5501 5497 5494 5491 5490 5490 5490 5491 5493
5768 5764 5760 5755 5751 5745 5740 5734 5728 5721 5714 5706 5698 5690 5681 5673 5664 5655 5646 5636 5627 5619 5611 5603 5594 5585 5576 5566 5557 5548 5540 5532 5525 5519 5514 5510 5507 5504 5501 5499 5498 5498 5499 5500
5761 5757 5753 5748 5744 5739 5733 5728 5722 5715 5708 5701 5693 5685 5677 5669 5661 5652 5644 5636 5628 5621 5614 5606 5598 5589 5581 5572 5564 5556 5548 5541 5534 5528 5523 5519 5516 5513 5510 5508 5507 5507 5507 5507
5752 5749 5744 5740 5736 5731 5726 5721 5716 5709 5703 5696 5689 5681 5674 5667 5659 5651 5643 5635 5627 5620 5614 5608 5601 5594 5586 5578 5571 5563 5556 5550 5543 5537 5532 5528 5525 5522 5519 5518 5516 5516 5516 5516
5743 5739 5736 5732 5728 5723 5719 5714 5709 5703 5697 5690 5684 5677 5670 5663 5656 5649 5642 5635 5627 5620 5615 5609 5603 5597 5591 5584 5577 5571 5565 5558 5553 5547 5542 5538 5534 5532 5529 5528 5527 5526 5526 5527
5733 5730 5726 5723 5719 5715 5711 5706 5701 5696 5691 5685 5679 5672 5666 5660 5653 5646 5640 5633 5627 5620 5615 5610 5605 5600 5594 5589 5583 5577 5572 5567 5562 5557 5552 5548 5545 5542 5540 5538 5537 5537 5537 5538
5723 5720 5717 5714 5710 5707 5703 5698 5694 5689 5684 5679 5673 5668 5662 5656 5650 5645 5638 5632 5625 5620 5615 5610 5606 5602 5597 5592 5588 5583 5579 5574 5570 5566 5562 5558 5555 5552 5550 5549 5548 5547 5548 5549
5712 5710 5707 5704 5701 5698 5694 5691 5687 5682 5678 5673 5668 5662 5657 5651 5646 5640 5635 5629 5624 5618 5614 5610 5606 5603 5599 5595 5591 5588 5584 5580 5577 5574 5570 5568 5565 5563 5561 5559 5558 5558 5558 5559
5701 5699 5697 5695 5692 5689 5686 5682 5679 5675 5671 5666 5661 5656 5651 5646 5641 5636 5631 5626 5621 5616 5612 5608 5605 5603 5600 5597 5594 5591 5588 5585 5582 5580 5577 5575 5573 5572 5570 5569 5568 5568 5568 5569
5690 5688 5687 5685 5682 5679 5676 5674 5671 5667 5664 5659 5655 5650 5645 5641 5636 5632 5627 5623 5618 5614 5610 5606 5604 5601 5599 5597 5595 5593 5591 5589 5587 5585 5583 5581 5580 5579 5578 5577 5577 5577 5577 5578
5677 5677 5676 5674 5672 5669 5667 5665 5662 5660 5656 5653 5649 5644 5640 5635 5631 5627 5623 5619 5615 5611 5607 5604 5601 5599 5598 5596 5595 5594 5592 5591 5589 5588 5587 5586 5585 5584 5583 5583 5583 5583 5584 5585